IRIDIUM 172

Last updated on Fri Sep 11 2026 00:03:06 GMT+0000 (Coordinated Universal Time)

1 43927U 19002F 26253.50725625 .00000155 00000+0 48132-4 0 9999 2 43927 86.3988 317.9262 0002275 95.5910 264.5545 14.34217417401194
UTC large
Height (km)
Speed (km/s)
/
Latitude / Longitude
Inclination (degrees)
Orbital Period (minutes)
Azimuth
Elevation
Range (km)
Doppler Factor

Next 0 passes for location: London (51.5072 / 0.1276)

No passes found over London.
IRIDIUM 172